Weather in Cauayan

Philippines     9°58′22″N   122°36′33″E
temp.,
°C
wind,
m/s
gust,
m/s
humid.,
%
clouds,
%
prec.,
mm/h
press.,
hPa
HPBL,
m
19 september, sun
sun1923:00+27ssw338182 3.4 1011142
02:00+27ssw23827 5.8 1009148
05:00+26s238282 2.4 1009193
08:00+27e117995 6.8 101042
11:00+29wsw236897 1.8 1010667
14:00+29w4471100 2.9 1008713
17:00+28w3477100 2.9 1008290
20:00+27wsw2375100 6.7 1010236
20 september, mon
mon2023:00+28wsw2272100 1.0 1011384
02:00+26wsw2379100 3.8 1009263
05:00+26w1281100 4.1 1010204
08:00+25ne1288100 7.2 1011261
11:00+26wsw118167 0.8 1011239
14:00+26wsw3478100 1.0 1008530
17:00+26wsw2282100 0.8 1009284
20:00+26ssw2281100 1.9 1011253
21 september, tue
tue2123:00+26se1180100 0.6 1011249
02:00+26ese2282100 0.9 1009261
05:00+26e228149 0.1 1009307
08:00+26ese227892 0.1 1010321
11:00+27nw227413 0.1 1009450
14:00+27w227412 1.4 1007533
17:00+27sw2375100 2.6 1007366
20:00+27ssw2276100 5.7 1010176
22 september, wed
wed2223:00+27s2277100 2.5 1010128
02:00+26sse227687 3.6 1009143
05:00+26sse1174100 0.1 1009175
08:00+27s127253 0.1 1011216
11:00+28w117181 0.0 1011424
14:00+27sw237983 2.7 1009326
17:00+27s228099 6.0 1009129
20:00+26ese2279100 11.6 101274
23 september, thu
thu2323:00+26e2379100 3.6 1012169
02:00+26ene2278100 4.1 1010332
05:00+26e337979 0.0 1010278
08:00+27ese227683 0.0 1011246
11:00+28nne337264 0.0 1011439
14:00+28nne4471100 0.0 1009473
17:00+29nne457498 0.4 1009431
20:00+28nne5576100 1.1 1011476